Hourly Data Report for October 21, 2019

All times are specified in Local Standard Time (LST). Add 1 hour to adjust for Daylight Saving Time where and when it is observed.

SEPT-ILES
QUEBEC
Current Station Operator: ECCC - MSC

50°13'00.000" N
66°15'00.000" W
52.60 m
7047914
71279
XZV

Download Data

Hourly Data (October 2019)
Hourly Data Report for October 21, 2019
TIME Temp Definition
°C
Dew Point Definition
°C
Rel Hum Definition
%
Wind Dir Definition
10's deg

Wind Spd Definition
km/h
Visibility Definition
km
Stn Press Definition
kPa
Hmdx Definition


Wind Chill Definition


Weather Definition


00:00 -2.7 -3.8 92 2 5   101.22   -5 LegendNANA
01:00 0.9 -1.9 82 1 6   101.26     LegendNANA
02:00 0.2 -1.1 91 2 5   101.27     LegendNANA
03:00 0.6 -1.7 85 36 3   101.33     LegendNANA
04:00 1.0 -1.2 86 3 8   101.34     LegendNANA
05:00 1.0 -1.1 85 2 8   101.38     LegendNANA
06:00 1.5 -0.9 84 2 7   101.39     LegendNANA
07:00 1.9 -0.6 84 2 8   101.44     LegendNANA
08:00 3.6 0.2 78 2 6   101.47     LegendNANA
09:00 5.1 0.2 70 6 7   101.45     LegendNANA
10:00 5.4 0.4 70 5 5   101.42     LegendNANA
11:00 6.3 0.9 69 8 6   101.44     LegendNANA
12:00 7.0 2.4 72 15 8   101.46     LegendNANA
13:00 6.5 1.9 73 15 9   101.43     LegendNANA
14:00 6.6 2.9 77 15 9   101.44     LegendNANA
15:00 6.0 3.1 81 17 5   101.49     LegendNANA
16:00 5.6 3.3 85 18 3   101.56     LegendNANA
17:00 3.8 1.7 87 36 1   101.62     LegendNANA
18:00 1.2 -0.1 91 26 4   101.69     LegendNANA
19:00 0.1 -0.8 94 29 4   101.74     LegendNANA
20:00 -0.7 -1.7 93 33 1   101.74   -1 LegendNANA
21:00 -0.9 -2.0 92 29 3   101.78   -2 LegendNANA
22:00 -1.7 -2.4 94 32 1   101.83   -2 LegendNANA
23:00 -2.4 -3.1 95 34 4   101.85   -4 LegendNANA

Notes on Data Quality.

Legend

  • E = Estimated
  • M = Missing
  • NA = Not Available
Date modified: